[[{"header":{"parameterUnit":"m.s-1","parameterCategory":1,"la1":30.2991,"la2":30.254,"lo1":-89.0895,"lo2":-89.0444,"dy":0.0017,"dx":0.0017,"nx":28,"ny":28,"refTime":"2024-05-09T21:00:00:Z","depth":0,"parameterNumber":2,"parameterNumberName":"U-component_of_WINDS"},"data":[0,0,0,0,0,0,0,0,0,0,0,0,0,0,0,0,0,0,0,0,0,0,0,0,0,0,0,0,0,0,0,0,0,0,0,0,0,0,0,0,0,0,0,0,0,0,0,0,0,0,0,0,0,0,0,0,0,0,0.5309,0.531,0,0.5416,0.5417,0.5419,0.5331,0.5327,0.5323,0.532,0.5444,0.545,0.5457,0,0,0,0,0,0,0,0,0,0,0,0,0,0.5043,0.5048,0.5308,0.531,0.5311,0.5416,0.5417,0.5419,0.5332,0.5327,0.5322,0.5318,0.5442,0.545,0.5458,0,0,0,0,0,0,0,0,0,0,0,0,0,0.5156,0.505,0.5308,0.528,0.5278,0.5416,0.5417,0.5419,0.5333,0.5327,0.5321,0.5316,0.5439,0.5449,0.5459,0.5634,0,0,0.549,0.5494,0,0,0,0,0,0,0,0,0.5149,0.5165,0.5283,0.5282,0.5281,0.5354,0.5369,0.5492,0.5334,0.5312,0.532,0.5313,0.5419,0.5431,0.5464,0.564,0.5645,0.5491,0.5497,0.5501,0.5504,0,0,0,0,0,0,0,0.5142,0.516,0.5351,0.5285,0.5283,0.5267,0.5277,0.5392,0.5397,0.5314,0.5308,0.5321,0.5418,0.5454,0.5466,0.5647,0.5491,0.55,0.5506,0.551,0.5978,0.5984,0,0,0,0,0,0,0.5135,0.5154,0.5348,0.5355,0.5199,0.5276,0.5287,0.5336,0.5395,0.5398,0.5326,0.5316,0.544,0.5454,0.547,0.5682,0.5501,0.5511,0.5517,0.5971,0.5979,0.5986,0,0,0,0,0,0,0.5129,0.5153,0.5344,0.5253,0.5276,0.5287,0.5343,0.5341,0.5377,0.5403,0.5405,0.5361,0.5436,0.5456,0.5594,0.5685,0.5515,0.5525,0.5964,0.5974,0.5982,0.6105,0,0,0,0,0,0,0.5122,0.5151,0.5214,0.5255,0.5281,0.5461,0.5348,0.5348,0.5394,0.5383,0.5437,0.5441,0.5433,0.5579,0.5604,0.5696,0.5533,0.5956,0.5968,0.5979,0.6093,0.6117,0.6138,0,0,0,0,0,0.5113,0.5246,0.5217,0.5241,0.5359,0.5466,0.5482,0.5466,0.5401,0.5467,0.5485,0.5439,0.5671,0.5594,0.5621,0.5718,0.595,0.5965,0.5979,0.6083,0.6113,0.6138,0,0,0,0,0,0,0.5219,0.5251,0.5219,0.5369,0.5415,0.5451,0.5533,0.5498,0.5567,0.5554,0.5536,0.5549,0.5695,0.572,0.5634,0.5893,0.5801,0.5821,0.5871,0.5899,0.5922,0.5914,0.5541,0,0,0,0,0,0.5259,0.5339,0.5365,0.5495,0.5519,0.5523,0.5569,0.5553,0.5602,0.5622,0.565,0.5704,0.5789,0.5845,0.5925,0.6096,0.611,0.6176,0.6199,0.6218,0.6236,0.6333,0.6364,0.6033,0.6032,0.6032,0,0,0.5345,0.5372,0.5424,0.5517,0.555,0.5639,0.554,0.5637,0.5704,0.5639,0.577,0.5793,0.5852,0.6009,0.6079,0.6034,0.6331,0.6236,0.625,0.6259,0.6351,0.6383,0.6411,0.6042,0.604,0.6039,0,0,0.5545,0.5572,0.5684,0.572,0.5772,0.5774,0.5802,0.5844,0.5855,0.5986,0.594,0.6023,0.6168,0.6213,0.6255,0.6478,0.644,0.6505,0.6624,0.6719,0.6745,0.6769,0.6851,0.6881,0.6522,0.6523,0.6523,0,0.5646,0.5772,0.5748,0.5849,0.5893,0.5835,0.5952,0.599,0.6067,0.6102,0.6049,0.6233,0.6268,0.6437,0.6491,0.6526,0.6561,0.6498,0.6743,0.6766,0.6787,0.6866,0.6897,0.653,0.653,0.6529,0.6528,0,0.5895,0.5985,0.607,0.6142,0.6196,0.6305,0.6303,0.6362,0.6342,0.6352,0.649,0.653,0.6619,0.6657,0.664,0.6825,0.6796,0.6744,0.6651,0.6827,0.6901,0.6931,0.6541,0.6539,0.6536,0.6534,0,0,0.6165,0.6223,0.6255,0.6289,0.6343,0.6414,0.6524,0.6606,0.6659,0.6716,0.681,0.6936,0.6889,0.6937,0.6925,0.7008,0.7186,0.6946,0.6947,0.6992,0.7398,0.7439,0.7474,0.7161,0.7167,0.7171,0.7394,0,0.6369,0.6553,0.6536,0.6713,0.6798,0.6746,0.6842,0.6889,0.6902,0.6981,0.6997,0.7088,0.7016,0.7045,0.7125,0.7147,0.7268,0.7131,0.7255,0.7259,0.7242,0.7512,0.7554,0.7762,0.7423,0.7428,0.7431,0,0.6632,0.6694,0.6879,0.6923,0.6958,0.7044,0.7121,0.7194,0.725,0.7254,0.7309,0.7284,0.74,0.7304,0.7467,0.7375,0.7425,0.7444,0.7452,0.7465,0.7357,0.7534,0.7827,0.786,0.7476,0.7472,0.7469,0,0.6813,0.6944,0.7072,0.7102,0.7157,0.7219,0.7246,0.7294,0.7347,0.7416,0.7451,0.7534,0.7581,0.7649,0.7649,0.7579,0.7817,0.7719,0.7828,0.7828,0.7881,0.7878,0.8189,0.791,0.791,0.7909,0.7908,0,0.7044,0.716,0.7154,0.7233,0.7364,0.7346,0.7478,0.7498,0.7543,0.7629,0.7591,0.7674,0.7669,0.7755,0.7757,0.7895,0.7916,0.7927,0.7926,0.7931,0.793,0.7965,0.7951,0.7917,0.7916,0.7914,0.7913,0,0.7269,0.7269,0.7405,0.7446,0.7459,0.7554,0.7591,0.7669,0.7679,0.779,0.7815,0.7834,0.7933,0.794,0.8057,0.8059,0.8226,0.8209,0.8207,0.8204,0.8313,0.8304,0.8659,0.8707,0.8395,0.8398,0.84,0,0.7417,0.7504,0.7554,0.7607,0.7636,0.7723,0.7775,0.7764,0.7821,0.7893,0.7964,0.8059,0.8135,0.8298,0.8325,0.8416,0.8402,0.8521,0.8416,0.8419,0.8408,0.8404,0.8414,0.8542,0.8545,0.8548,0.855,0,0.7681,0.7677,0.7751,0.7828,0.7891,0.7952,0.8008,0.8056,0.8052,0.812,0.8219,0.8278,0.8396,0.8494,0.8583,0.8617,0.8586,0.8583,0.8613,0.862,0.8616,0.8623,0.8265,0.8575,0.8572,0.8571,0.8569,0.8568,0.7874,0.795,0.7997,0.8084,0.8124,0.8179,0.8255,0.8274,0.8356,0.8448,0.8438,0.855,0.8609,0.8724,0.8765,0.8857,0.8818,0.8861,0.8872,0.8884,0.8897,0.86,0.8873,0.8872,0.8872,0.8871,0.8871,0,0.8138,0.8166,0.8245,0.8324,0.8394,0.8353,0.8415,0.8478,0.8575,0.863,0.8705,0.8823,0.8918,0.8953,0.9048,0.9115,0.9103,0.914,0.9136,0.9146,0.8925,0.889,0.9148,0.9148,0.9148,0.9148,0.9148,0.9148,0.8283,0.8412,0.8415,0.8566,0.8595,0.87,0.874,0.8793,0.8836,0.8968,0.9045,0.9066,0.9116,0.9214,0.9302,0.931,0.9348,0.9392,0.9395,0.9189,0.9161,0.9134,0.9102,0.94,0.94,0.9609,0.9611,0.9612]},{"header":{"parameterUnit":"m.s-1","parameterCategory":1,"la1":30.2991,"la2":30.254,"lo1":-89.0895,"lo2":-89.0444,"dy":0.0017,"dx":0.0017,"nx":28,"ny":28,"refTime":"2024-05-09T21:00:00:Z","depth":0,"parameterNumber":3,"parameterNumberName":"V-component_of_WINDS"},"data":[0,0,0,0,0,0,0,0,0,0,0,0,0,0,0,0,0,0,0,0,0,0,0,0,0,0,0,0,0,0,0,0,0,0,0,0,0,0,0,0,0,0,0,0,0,0,0,0,0,0,0,0,0,0,0,0,0,0,-1.7006,-1.7006,0,-1.7014,-1.7015,-1.7015,-1.7095,-1.7097,-1.7099,-1.7101,-1.7104,-1.7102,-1.71,0,0,0,0,0,0,0,0,0,0,0,0,0,-1.7054,-1.7053,-1.7006,-1.7006,-1.7006,-1.7014,-1.7015,-1.7015,-1.7095,-1.7098,-1.71,-1.7102,-1.7105,-1.7103,-1.71,0,0,0,0,0,0,0,0,0,0,0,0,0,-1.7045,-1.7052,-1.7006,-1.7047,-1.7051,-1.7014,-1.7015,-1.7015,-1.7095,-1.7098,-1.7101,-1.7104,-1.7105,-1.7103,-1.71,-1.7022,0,0,-1.7092,-1.709,0,0,0,0,0,0,0,0,-1.7045,-1.7043,-1.7041,-1.7044,-1.7049,-1.7057,-1.7033,-1.7017,-1.7094,-1.7078,-1.7101,-1.7105,-1.7086,-1.7085,-1.7079,-1.7022,-1.7022,-1.7091,-1.709,-1.7089,-1.7088,0,0,0,0,0,0,0,-1.7046,-1.7043,-1.7009,-1.7041,-1.7045,-1.7064,-1.7066,-1.703,-1.7064,-1.7079,-1.7085,-1.7086,-1.7088,-1.7082,-1.708,-1.7023,-1.7092,-1.7089,-1.7087,-1.7086,-1.6902,-1.6899,0,0,0,0,0,0,-1.7041,-1.7043,-1.7009,-1.7009,-1.7054,-1.7061,-1.7063,-1.7051,-1.7065,-1.707,-1.7083,-1.7089,-1.7085,-1.7083,-1.708,-1.699,-1.7089,-1.7086,-1.7084,-1.6905,-1.6902,-1.6898,0,0,0,0,0,0,-1.7042,-1.7037,-1.7008,-1.7028,-1.7025,-1.7057,-1.7043,-1.705,-1.7044,-1.7068,-1.7074,-1.7071,-1.7087,-1.7084,-1.7037,-1.6992,-1.7085,-1.7082,-1.6909,-1.6904,-1.69,-1.6809,0,0,0,0,0,0,-1.7043,-1.7037,-1.7009,-1.7027,-1.7024,-1.6966,-1.704,-1.7048,-1.7039,-1.7048,-1.7058,-1.7062,-1.7089,-1.704,-1.7034,-1.699,-1.708,-1.6913,-1.6907,-1.6901,-1.6816,-1.6802,-1.679,0,0,0,0,0,-1.7044,-1.6982,-1.7007,-1.7003,-1.699,-1.6963,-1.6961,-1.6996,-1.7035,-1.7007,-1.7022,-1.7062,-1.6998,-1.7035,-1.7028,-1.6982,-1.6916,-1.6909,-1.6902,-1.6822,-1.6805,-1.679,0,0,0,0,0,0,-1.6956,-1.6985,-1.7013,-1.6955,-1.6956,-1.6977,-1.6941,-1.6976,-1.6964,-1.6972,-1.7014,-1.7015,-1.6961,-1.6967,-1.7008,-1.6908,-1.6964,-1.6955,-1.6906,-1.6889,-1.6876,-1.6875,-1.7078,0,0,0,0,0,-1.693,-1.6907,-1.6933,-1.6879,-1.6879,-1.691,-1.6899,-1.6926,-1.6928,-1.6928,-1.6941,-1.6939,-1.6919,-1.6905,-1.6887,-1.6818,-1.6821,-1.6783,-1.677,-1.6759,-1.675,-1.6714,-1.6697,-1.6874,-1.6874,-1.6874,0,0,-1.6875,-1.6888,-1.6871,-1.6862,-1.6866,-1.684,-1.6909,-1.6879,-1.686,-1.6923,-1.688,-1.6888,-1.689,-1.6831,-1.6806,-1.6834,-1.6702,-1.6749,-1.674,-1.6738,-1.6704,-1.6688,-1.6673,-1.6869,-1.687,-1.6871,0,0,-1.6762,-1.677,-1.6727,-1.673,-1.6736,-1.6758,-1.6747,-1.6763,-1.6772,-1.6729,-1.6776,-1.6753,-1.6717,-1.6716,-1.6711,-1.6599,-1.6635,-1.6592,-1.6522,-1.6486,-1.6472,-1.6459,-1.6419,-1.6404,-1.6584,-1.6584,-1.6584,0,-1.6693,-1.6658,-1.6699,-1.6666,-1.666,-1.6719,-1.6674,-1.6674,-1.6673,-1.6667,-1.67,-1.6657,-1.6662,-1.6604,-1.6577,-1.6571,-1.6559,-1.6591,-1.6471,-1.6459,-1.6448,-1.641,-1.6394,-1.6578,-1.6579,-1.658,-1.658,0,-1.6572,-1.6547,-1.6511,-1.6511,-1.6501,-1.6462,-1.6496,-1.648,-1.6508,-1.6525,-1.6481,-1.6489,-1.6475,-1.6463,-1.6489,-1.6408,-1.6426,-1.6464,-1.6521,-1.6425,-1.639,-1.6376,-1.6571,-1.6573,-1.6574,-1.6576,0,0,-1.6403,-1.6428,-1.6413,-1.6415,-1.6426,-1.6407,-1.637,-1.6358,-1.6344,-1.6341,-1.6311,-1.628,-1.6316,-1.631,-1.6336,-1.6304,-1.6215,-1.6347,-1.6347,-1.6321,-1.6125,-1.6096,-1.6078,-1.6239,-1.6236,-1.6234,-1.6125,0,-1.6294,-1.6235,-1.6271,-1.6206,-1.6182,-1.6238,-1.6206,-1.6209,-1.6224,-1.6205,-1.6222,-1.6199,-1.6248,-1.6245,-1.6217,-1.6232,-1.6176,-1.624,-1.6209,-1.6207,-1.6206,-1.606,-1.6029,-1.5926,-1.6112,-1.6109,-1.6108,0,-1.6159,-1.6154,-1.6086,-1.6103,-1.6095,-1.6066,-1.6058,-1.604,-1.6044,-1.6057,-1.6051,-1.6085,-1.6049,-1.6106,-1.6056,-1.6099,-1.6088,-1.6093,-1.609,-1.6088,-1.6151,-1.6053,-1.5893,-1.5877,-1.6086,-1.6088,-1.609,0,-1.6042,-1.6017,-1.5974,-1.5973,-1.5992,-1.597,-1.5976,-1.5984,-1.5974,-1.5967,-1.5961,-1.5948,-1.5941,-1.5929,-1.5959,-1.5998,-1.5904,-1.5964,-1.5912,-1.5911,-1.5889,-1.589,-1.5725,-1.5883,-1.5884,-1.5884,-1.5884,0,-1.5916,-1.5873,-1.5922,-1.5895,-1.5847,-1.5889,-1.584,-1.5852,-1.5858,-1.5833,-1.588,-1.5856,-1.5897,-1.5875,-1.5898,-1.5852,-1.5848,-1.5857,-1.5863,-1.5852,-1.5851,-1.5845,-1.5852,-1.588,-1.5881,-1.5882,-1.5882,0,-1.5777,-1.5808,-1.5764,-1.5787,-1.5791,-1.5755,-1.5773,-1.5748,-1.5767,-1.5735,-1.573,-1.5759,-1.5737,-1.5766,-1.5745,-1.576,-1.5698,-1.5715,-1.5697,-1.5702,-1.5648,-1.5652,-1.5473,-1.5451,-1.5624,-1.5623,-1.5621,0,-1.5694,-1.5663,-1.5682,-1.567,-1.5674,-1.5654,-1.5645,-1.5685,-1.5673,-1.5676,-1.565,-1.5632,-1.562,-1.5581,-1.5599,-1.5584,-1.5601,-1.5539,-1.5598,-1.5588,-1.5598,-1.56,-1.5596,-1.5526,-1.5524,-1.5522,-1.5521,0,-1.5545,-1.5562,-1.5549,-1.5541,-1.553,-1.5525,-1.5523,-1.551,-1.5551,-1.5536,-1.5515,-1.5506,-1.5486,-1.5467,-1.5457,-1.5461,-1.5496,-1.5502,-1.5489,-1.5477,-1.5468,-1.5471,-1.5663,-1.5506,-1.5507,-1.5508,-1.5509,-1.551,-1.5431,-1.5405,-1.5415,-1.5399,-1.5402,-1.54,-1.5378,-1.5395,-1.5379,-1.5368,-1.5391,-1.5364,-1.5368,-1.5359,-1.5359,-1.5337,-1.5363,-1.5345,-1.534,-1.5334,-1.5326,-1.5472,-1.5335,-1.5336,-1.5336,-1.5337,-1.5337,0,-1.5283,-1.5292,-1.5277,-1.5275,-1.5261,-1.5299,-1.5299,-1.5285,-1.5261,-1.5263,-1.5251,-1.5226,-1.5208,-1.5225,-1.521,-1.5189,-1.5205,-1.5184,-1.5185,-1.5185,-1.5304,-1.5316,-1.5171,-1.5171,-1.5171,-1.5171,-1.5171,-1.5171,-1.5204,-1.5163,-1.5181,-1.5142,-1.5151,-1.5127,-1.5124,-1.5121,-1.5123,-1.5094,-1.508,-1.5093,-1.51,-1.5086,-1.5071,-1.5076,-1.5067,-1.504,-1.5051,-1.5161,-1.5177,-1.5192,-1.5204,-1.5038,-1.5038,-1.4934,-1.4933,-1.4932]}]]